KF0ZH Weather Reports


Display with metric or nautical units.
time (UTC)temp
F
wind
direction
speed
MPH
gust
MPH
rain 1hr
in
rain 24hr
in
rain mn
in
humidity
%
barometer
mb
20260902034626 72 201 0.0 0.0 0.00 0.00 0.00 92 1010.5
20260902034456 72 201 0.0 0.0 0.00 0.00 0.00 92 1010.5
20260902033956 72 201 0.0 0.0 0.00 0.00 0.00 92 1010.6
20260902033456 72 201 0.0 0.0 0.00 0.00 0.00 91 1010.7
20260902033118 73 201 0.0 0.0 0.00 0.00 0.00 91 1011.0
20260902032956 73 201 0.0 0.0 0.00 0.00 0.00 91 1011.0
20260902032456 73 201 0.0 0.0 0.00 0.00 0.00 91 1011.1
20260902031957 73 201 0.0 0.0 0.00 0.00 0.00 91 1011.2
20260902031456 73 201 0.0 0.0 0.00 0.00 0.00 90 1011.4
20260902030956 73 201 0.0 0.0 0.00 0.00 0.00 89 1011.5
20260902030640 73 201 0.0 0.0 0.00 0.00 0.00 89 1011.5
20260902030457 73 201 0.0 0.0 0.00 0.00 0.00 89 1011.5
20260902030000 73 201 0.0 0.0 0.00 0.00 0.00 89 1011.4
20260902025631 73 201 0.0 0.0 0.00 0.00 0.00 88 1011.4
20260902025456 73 201 0.0 0.0 0.00 0.00 0.00 88 1011.4
20260902024956 73 201 0.0 0.0 0.00 0.00 0.00 87 1011.2
20260902024116 74 201 0.0 0.0 0.00 0.00 0.00 87 1011.1
20260902023956 74 201 0.0 0.0 0.00 0.00 0.00 87 1011.1
20260902023456 74 201 0.0 0.0 0.00 0.00 0.00 86 1011.1
20260902023109 74 201 0.0 0.0 0.00 0.00 0.00 86 1011.0
20260902022957 74 201 0.0 0.0 0.00 0.00 0.00 86 1011.0
20260902022058 75 201 0.0 0.0 0.00 0.00 0.00 85 1011.1
20260902021957 75 201 0.0 0.0 0.00 0.00 0.00 85 1011.1
20260902021030 75 201 0.0 0.0 0.00 0.00 0.00 84 1011.1
20260902020956 75 201 0.0 0.0 0.00 0.00 0.00 84 1011.1
20260902020457 75 201 0.0 0.0 0.00 0.00 0.00 84 1011.1
20260902015958 75 201 0.0 0.0 0.00 0.00 0.00 83 1011.1
20260902015501 75 201 0.0 0.0 0.00 0.00 0.00 83 1011.1
20260902015000 76 201 0.0 0.0 0.00 0.00 0.00 82 1011.1
20260902014456 76 201 0.0 0.0 0.00 0.00 0.00 81 1011.0
20260902013956 76 201 0.0 0.0 0.00 0.00 0.00 80 1010.9
20260902013456 77 201 0.0 0.0 0.00 0.00 0.00 80 1010.8
20260902012956 77 201 0.0 0.0 0.00 0.00 0.00 80 1010.8
20260902012456 77 201 0.0 0.0 0.00 0.00 0.00 80 1010.9
20260902012028 77 201 0.0 0.0 0.00 0.00 0.00 78 1010.8
20260902011956 77 201 0.0 0.0 0.00 0.00 0.00 78 1010.8
20260902011457 78 201 0.0 0.0 0.00 0.00 0.00 77 1010.8
20260902010956 78 201 0.0 0.0 0.00 0.00 0.00 76 1010.9
20260902010456 78 201 0.0 0.0 0.00 0.00 0.00 75 1010.8
20260902005957 79 201 0.0 0.0 0.00 0.00 0.00 74 1010.7
20260902005503 79 201 0.0 0.0 0.00 0.00 0.00 73 1010.6
20260902004631 80 201 0.0 0.0 0.00 0.00 0.00 72 1010.7
20260902004456 80 201 0.0 0.0 0.00 0.00 0.00 72 1010.7
20260902003956 80 201 0.0 0.0 0.00 0.00 0.00 72 1010.6
20260902003458 80 201 0.0 0.0 0.00 0.00 0.00 72 1010.7
20260902002456 80 201 0.0 0.0 0.00 0.00 0.00 70 1010.7
20260902001956 81 201 0.0 0.0 0.00 0.00 0.00 70 1010.7
20260902001456 81 201 0.0 0.0 0.00 0.00 0.00 70 1010.7
20260902000957 81 201 0.0 0.0 0.00 0.00 0.00 69 1010.8
20260901235456 81 260 0.0 3.0 0.00 0.00 0.00 68 1010.9
20260901234959 81 282 0.0 0.0 0.00 0.00 0.00 68 1011.0
20260901234456 81 282 0.0 0.0 0.00 0.00 0.00 67 1011.0
20260901233457 82 282 0.0 4.0 0.00 0.00 0.00 66 1011.1
20260901232956 82 267 0.0 0.0 0.00 0.00 0.00 66 1011.1
20260901232456 82 267 0.0 0.0 0.00 0.00 0.00 65 1011.0
20260901231956 82 267 0.0 0.0 0.00 0.00 0.00 65 1011.0
20260901231534 82 267 0.0 0.0 0.00 0.00 0.00 64 1011.0
20260901231457 82 267 0.0 0.0 0.00 0.00 0.00 64 1011.0
20260901230957 82 267 0.0 0.0 0.00 0.00 0.00 64 1011.0
20260901230456 82 267 0.0 0.0 0.00 0.00 0.00 64 1011.0
20260901225958 82 267 0.0 0.0 0.00 0.00 0.00 63 1010.9
20260901225458 82 267 0.0 0.0 0.00 0.00 0.00 63 1011.0
20260901224956 82 267 0.0 4.0 0.00 0.00 0.00 62 1010.9
20260901224458 82 305 0.0 0.0 0.00 0.00 0.00 62 1011.1
20260901223959 83 305 0.0 0.0 0.00 0.00 0.00 61 1011.0
20260901223457 83 305 0.0 0.0 0.00 0.00 0.00 60 1010.9
20260901223001 83 305 0.0 2.0 0.00 0.00 0.00 60 1010.9
20260901222457 83 289 0.0 3.0 0.00 0.00 0.00 59 1011.1
20260901221957 83 281 0.0 0.0 0.00 0.00 0.00 59 1011.0
20260901221457 83 281 0.0 0.0 0.00 0.00 0.00 59 1011.0
20260901220956 83 281 0.0 3.0 0.00 0.00 0.00 59 1011.1
20260901215500 83 225 0.0 5.0 0.00 0.00 0.00 59 1010.9
20260901215021 83 239 0.0 5.0 0.00 0.00 0.00 59 1011.0
20260901213459 83 158 2.0 4.0 0.00 0.00 0.00 60 1011.0
20260901213001 83 264 0.0 5.0 0.00 0.00 0.00 60 1011.0
20260901211500 83 237 5.0 5.0 0.00 0.00 0.00 60 1011.0
20260901210000 83 232 0.0 5.0 0.00 0.00 0.00 58 1011.0
20260901205456 83 187 2.0 5.0 0.00 0.00 0.00 59 1010.8
20260901204958 83 223 0.0 0.0 0.00 0.00 0.00 58 1010.9
20260901203957 83 223 0.0 0.0 0.00 0.00 0.00 57 1010.8
20260901203458 83 223 0.0 0.0 0.00 0.00 0.00 59 1010.8
20260901202958 83 223 0.0 1.0 0.00 0.00 0.00 58 1011.0
20260901201956 83 275 5.0 5.0 0.00 0.00 0.00 59 1011.2
20260901201456 83 272 0.0 0.0 0.00 0.00 0.00 58 1011.4
20260901200457 83 282 3.0 5.0 0.00 0.00 0.00 59 1011.4
20260901195958 83 246 0.0 4.0 0.00 0.00 0.00 59 1011.1
20260901195457 83 147 0.0 5.0 0.00 0.00 0.00 60 1011.1
20260901194956 83 205 4.0 7.0 0.00 0.00 0.00 59 1011.1
20260901193957 84 227 0.0 7.0 0.00 0.00 0.00 55 1011.5
20260901193501 83 243 3.0 5.0 0.00 0.00 0.00 55 1011.5
20260901192458 84 163 0.0 6.0 0.00 0.00 0.00 55 1011.2
20260901192001 84 222 5.0 7.0 0.00 0.00 0.00 54 1011.5
20260901191457 84 199 3.0 5.0 0.00 0.00 0.00 54 1011.6
20260901190456 84 194 0.0 5.0 0.00 0.00 0.00 57 1011.6
20260901190000 83 326 0.0 0.0 0.00 0.00 0.00 57 1011.7
20260901185456 83 326 0.0 7.0 0.00 0.00 0.00 58 1011.7
20260901184956 83 18 0.0 3.0 0.00 0.00 0.00 58 1011.7
20260901183958 84 298 0.0 7.0 0.00 0.00 0.00 58 1011.7
20260901183928 84 358 0.0 7.0 0.00 0.00 0.00 58 1011.5
20260901183712 84 358 0.0 7.0 0.00 0.00 0.00 58 1011.5
20260901183509 84 358 0.0 7.0 0.00 0.00 0.00 58 1011.5
20260901182956 84 30 3.0 7.0 0.00 0.00 0.00 57 1011.4
20260901182456 85 49 6.0 6.0 0.00 0.00 0.00 56 1011.5
20260901181956 84 281 0.0 0.0 0.00 0.00 0.00 58 1011.6
20260901181458 84 281 0.0 4.0 0.00 0.00 0.00 57 1011.7
20260901180959 84 230 0.0 0.0 0.00 0.00 0.00 57 1011.9
20260901175457 83 219 0.0 4.0 0.00 0.00 0.00 57 1012.1
20260901173459 83 212 3.0 5.0 0.00 0.00 0.00 55 1012.3
20260901172622 83 291 0.0 6.0 0.00 0.00 0.00 54 1012.5
20260901172459 83 291 0.0 6.0 0.00 0.00 0.00 54 1012.5
20260901171956 83 102 0.0 4.0 0.00 0.00 0.00 60 1012.5
20260901171505 83 313 0.0 5.0 0.00 0.00 0.00 59 1012.5
20260901170958 83 350 0.0 6.0 0.00 0.00 0.00 57 1012.5
20260901170459 83 326 5.0 5.0 0.00 0.00 0.00 58 1012.6
20260901170000 83 270 0.0 5.0 0.00 0.00 0.00 60 1012.6
20260901165500 83 327 0.0 6.0 0.00 0.00 0.00 60 1012.7
20260901164502 81 201 0.0 5.0 0.00 0.00 0.00 63 1012.7
20260901163956 81 142 0.0 4.0 0.00 0.00 0.00 65 1012.7
20260901163457 81 271 4.0 7.0 0.00 0.00 0.00 64 1012.8
20260901162957 81 220 0.0 6.0 0.00 0.00 0.00 67 1012.9
20260901162656 80 358 0.0 5.0 0.00 0.00 0.00 68 1012.8
20260901162526 80 358 0.0 5.0 0.00 0.00 0.00 68 1012.8
20260901162456 80 358 0.0 5.0 0.00 0.00 0.00 68 1012.8
20260901161956 80 285 0.0 7.0 0.00 0.00 0.00 66 1012.8
20260901160956 80 230 0.0 1.0 0.00 0.00 0.00 69 1012.7
20260901160456 79 230 0.0 6.0 0.00 0.00 0.00 69 1012.7
20260901160146 79 270 0.0 3.0 0.00 0.00 0.00 72 1012.7
20260901160002 79 270 0.0 3.0 0.00 0.00 0.00 72 1012.7
20260901154710 78 345 4.0 7.0 0.00 0.00 0.00 72 1012.4
20260901154531 78 345 4.0 7.0 0.00 0.00 0.00 72 1012.4
20260901154456 78 345 4.0 7.0 0.00 0.00 0.00 72 1012.4
20260901153956 78 189 3.0 5.0 0.00 0.00 0.00 72 1012.5
20260901153456 78 255 0.0 0.0 0.00 0.00 0.00 74 1012.6
20260901151958 77 292 4.0 4.0 0.00 0.00 0.00 76 1012.7
20260901150548 77 226 2.0 5.0 0.00 0.00 0.00 74 1012.8
20260901150456 77 226 2.0 5.0 0.00 0.00 0.00 74 1012.8
20260901144252 75 348 0.0 4.0 0.00 0.00 0.00 80 1013.0
20260901144032 75 348 0.0 4.0 0.00 0.00 0.00 80 1013.0
20260901143956 75 348 0.0 4.0 0.00 0.00 0.00 80 1013.0
20260901142956 74 296 3.0 5.0 0.00 0.00 0.00 81 1013.1
20260901140657 72 217 0.0 4.0 0.00 0.00 0.00 88 1013.2
20260901140527 72 217 0.0 4.0 0.00 0.00 0.00 88 1013.2
20260901140456 72 217 0.0 4.0 0.00 0.00 0.00 88 1013.2
20260901140246 71 247 1.0 5.0 0.00 0.00 0.00 87 1013.2
20260901140028 71 247 1.0 5.0 0.00 0.00 0.00 87 1013.2
20260901135957 71 247 1.0 5.0 0.00 0.00 0.00 87 1013.2
20260901135224 70 265 0.0 0.0 0.00 0.00 0.00 96 1013.2
20260901134958 70 265 0.0 0.0 0.00 0.00 0.00 96 1013.2
20260901134712 70 265 0.0 0.0 0.00 0.00 0.00 97 1013.2
20260901134547 70 265 0.0 0.0 0.00 0.00 0.00 97 1013.2
20260901134457 70 265 0.0 0.0 0.00 0.00 0.00 97 1013.2
20260901132327 67 265 0.0 0.0 0.00 0.00 0.00 99 1013.4
20260901132228 67 265 0.0 0.0 0.00 0.00 0.00 99 1013.4
20260901132031 67 265 0.0 0.0 0.00 0.00 0.00 99 1013.4
20260901131956 67 265 0.0 0.0 0.00 0.00 0.00 99 1013.4
20260901131710 66 265 0.0 0.0 0.00 0.00 0.00 99 1013.3
20260901131531 66 265 0.0 0.0 0.00 0.00 0.00 99 1013.3
20260901131456 66 265 0.0 0.0 0.00 0.00 0.00 99 1013.3
20260901125046 65 265 0.0 0.0 0.00 0.00 0.00 99 1013.1
20260901124956 65 265 0.0 0.0 0.00 0.00 0.00 99 1013.1
20260901124701 65 265 0.0 0.0 0.00 0.00 0.00 79 1013.0
20260901124630 65 265 0.0 0.0 0.00 0.00 0.00 79 1013.0
20260901124458 65 265 0.0 0.0 0.00 0.00 0.00 79 1013.0
20260901123956 65 265 0.0 0.0 0.00 0.00 0.00 99 1013.0
20260901123902 65 265 0.0 0.0 0.00 0.00 0.00 99 1013.0
20260901123810 65 265 0.0 0.0 0.00 0.00 0.00 99 1013.0
20260901123737 65 265 0.0 0.0 0.00 0.00 0.00 99 1013.0
20260901123456 65 265 0.0 0.0 0.00 0.00 0.00 99 1013.0
20260901123047 64 265 0.0 0.0 0.00 0.00 0.00 99 1013.0
20260901122956 64 265 0.0 0.0 0.00 0.00 0.00 99 1013.0
20260901121310 64 265 0.0 0.0 0.00 0.00 0.00 99 1012.9
20260901121106 64 265 0.0 0.0 0.00 0.00 0.00 99 1012.9
20260901121032 64 265 0.0 0.0 0.00 0.00 0.00 99 1012.9
20260901120956 64 265 0.0 0.0 0.00 0.00 0.00 99 1012.9
20260901120100 64 265 0.0 0.0 0.00 0.00 0.00 99 1012.8
20260901120029 64 265 0.0 0.0 0.00 0.00 0.00 99 1012.8
20260901115957 64 265 0.0 0.0 0.00 0.00 0.00 99 1012.8
20260901114956 63 265 0.0 0.0 0.00 0.00 0.00 99 1012.7
20260901114750 63 265 0.0 0.0 0.00 0.00 0.00 99 1012.6
20260901114715 63 265 0.0 0.0 0.00 0.00 0.00 99 1012.6
20260901114537 63 265 0.0 0.0 0.00 0.00 0.00 99 1012.6
20260901114458 63 265 0.0 0.0 0.00 0.00 0.00 99 1012.6
20260901113539 63 265 0.0 0.0 0.00 0.00 0.00 99 1012.5
20260901113458 63 265 0.0 0.0 0.00 0.00 0.00 99 1012.5
20260901113418 63 265 0.0 0.0 0.00 0.00 0.00 99 1012.5
20260901113223 63 265 0.0 0.0 0.00 0.00 0.00 99 1012.5
20260901113112 63 265 0.0 0.0 0.00 0.00 0.00 99 1012.5
20260901113042 63 265 0.0 0.0 0.00 0.00 0.00 99 1012.5
20260901112956 63 265 0.0 0.0 0.00 0.00 0.00 99 1012.5
20260901112713 63 265 0.0 0.0 0.00 0.00 0.00 99 1012.3
20260901112552 63 265 0.0 0.0 0.00 0.00 0.00 99 1012.3
20260901112458 63 265 0.0 0.0 0.00 0.00 0.00 99 1012.3
20260901110158 64 265 0.0 0.0 0.00 0.00 0.00 99 1012.0
20260901105957 64 265 0.0 0.0 0.00 0.00 0.00 99 1012.0
20260901105704 64 265 0.0 0.0 0.00 0.00 0.00 99 1011.9
20260901105500 64 265 0.0 0.0 0.00 0.00 0.00 99 1011.9
20260901104541 64 265 0.0 0.0 0.00 0.00 0.00 99 1011.9
20260901104456 64 265 0.0 0.0 0.00 0.00 0.00 99 1011.9
20260901103456 64 265 0.0 0.0 0.00 0.00 0.00 99 1011.9
20260901103325 64 265 0.0 0.0 0.00 0.00 0.00 99 1011.8
20260901103153 64 265 0.0 0.0 0.00 0.00 0.00 99 1011.8
20260901103116 64 265 0.0 0.0 0.00 0.00 0.00 99 1011.8
20260901102956 64 265 0.0 0.0 0.00 0.00 0.00 99 1011.8
20260901101140 64 265 0.0 0.0 0.00 0.00 0.00 99 1011.7
20260901100957 64 265 0.0 0.0 0.00 0.00 0.00 99 1011.7
20260901100528 64 265 0.0 0.0 0.00 0.00 0.00 99 1011.7
20260901100457 64 265 0.0 0.0 0.00 0.00 0.00 99 1011.7
20260901095141 64 265 0.0 0.0 0.00 0.00 0.00 99 1011.8
20260901095109 64 265 0.0 0.0 0.00 0.00 0.00 99 1011.8
20260901094956 64 265 0.0 0.0 0.00 0.00 0.00 99 1011.8
20260901094414 64 265 0.0 0.0 0.00 0.00 0.00 99 1011.8
20260901094328 64 265 0.0 0.0 0.00 0.00 0.00 99 1011.8
20260901094256 64 265 0.0 0.0 0.00 0.00 0.00 99 1011.8
20260901094151 64 265 0.0 0.0 0.00 0.00 0.00 99 1011.8
20260901094101 64 265 0.0 0.0 0.00 0.00 0.00 99 1011.8
20260901094027 64 265 0.0 0.0 0.00 0.00 0.00 99 1011.8
20260901093956 64 265 0.0 0.0 0.00 0.00 0.00 99 1011.8
20260901093307 64 265 0.0 0.0 0.00 0.00 0.00 99 1011.6
20260901093108 64 265 0.0 0.0 0.00 0.00 0.00 99 1011.6
20260901093029 64 265 0.0 0.0 0.00 0.00 0.00 99 1011.6
20260901092957 64 265 0.0 0.0 0.00 0.00 0.00 99 1011.6
20260901092458 65 265 0.0 0.0 0.00 0.00 0.00 99 1011.6
20260901091610 65 265 0.0 0.0 0.00 0.00 0.00 99 1011.5
20260901091457 65 265 0.0 0.0 0.00 0.00 0.00 99 1011.5
20260901091032 65 265 0.0 0.0 0.00 0.00 0.00 99 1011.5
20260901090956 65 265 0.0 0.0 0.00 0.00 0.00 99 1011.5
20260901090456 65 265 0.0 0.0 0.00 0.00 0.00 99 1011.5
20260901090358 65 265 0.0 0.0 0.00 0.00 0.00 99 1011.4
20260901090052 65 265 0.0 0.0 0.00 0.00 0.00 99 1011.4
20260901085957 65 265 0.0 0.0 0.00 0.00 0.00 99 1011.4
20260901085242 65 265 0.0 0.0 0.00 0.00 0.00 99 1011.5
20260901085051 65 265 0.0 0.0 0.00 0.00 0.00 99 1011.5
20260901085004 65 265 0.0 0.0 0.00 0.00 0.00 99 1011.5
20260901084650 65 265 0.0 0.0 0.00 0.00 0.00 99 1011.6
20260901084612 65 265 0.0 0.0 0.00 0.00 0.00 99 1011.6
20260901084456 65 265 0.0 0.0 0.00 0.00 0.00 99 1011.6
20260901084103 65 265 0.0 0.0 0.00 0.00 0.00 99 1011.8
20260901083956 65 265 0.0 0.0 0.00 0.00 0.00 99 1011.8
20260901083303 65 265 0.0 0.0 0.00 0.00 0.00 99 1011.7
20260901083028 65 265 0.0 0.0 0.00 0.00 0.00 99 1011.7
20260901082956 65 265 0.0 0.0 0.00 0.00 0.00 99 1011.7
20260901082644 65 265 0.0 0.0 0.00 0.00 0.00 99 1011.6
20260901082530 65 265 0.0 0.0 0.00 0.00 0.00 99 1011.6
20260901082457 65 265 0.0 0.0 0.00 0.00 0.00 99 1011.6
20260901082028 65 265 0.0 0.0 0.00 0.00 0.00 99 1011.5
20260901081957 65 265 0.0 0.0 0.00 0.00 0.00 99 1011.5
20260901081824 65 265 0.0 0.0 0.00 0.00 0.00 99 1011.5
20260901081751 65 265 0.0 0.0 0.00 0.00 0.00 99 1011.5
20260901081529 65 265 0.0 0.0 0.00 0.00 0.00 99 1011.5
20260901081456 65 265 0.0 0.0 0.00 0.00 0.00 99 1011.5
20260901081200 65 265 0.0 0.0 0.00 0.00 0.00 99 1011.5
20260901080957 65 265 0.0 0.0 0.00 0.00 0.00 99 1011.5
20260901080750 66 265 0.0 0.0 0.00 0.00 0.00 99 1011.6
20260901080548 66 265 0.0 0.0 0.00 0.00 0.00 99 1011.6
20260901080459 66 265 0.0 0.0 0.00 0.00 0.00 99 1011.6
20260901080431 66 265 0.0 0.0 0.00 0.00 0.00 99 1011.6
20260901080132 66 265 0.0 0.0 0.00 0.00 0.00 99 1011.6
20260901080039 66 265 0.0 0.0 0.00 0.00 0.00 99 1011.6
20260901075958 66 265 0.0 0.0 0.00 0.00 0.00 99 1011.6
20260901075548 66 265 0.0 0.0 0.00 0.00 0.00 99 1011.6
20260901075457 66 265 0.0 0.0 0.00 0.00 0.00 99 1011.6
20260901075318 66 265 0.0 0.0 0.00 0.00 0.00 99 1011.6
20260901075135 66 265 0.0 0.0 0.00 0.00 0.00 99 1011.6
20260901074958 66 265 0.0 0.0 0.00 0.00 0.00 99 1011.6
20260901074602 66 265 0.0 0.0 0.00 0.00 0.00 99 1011.6
20260901074214 66 265 0.0 0.0 0.00 0.00 0.00 99 1011.6
20260901074058 66 265 0.0 0.0 0.00 0.00 0.00 99 1011.6
20260901073957 66 265 0.0 0.0 0.00 0.00 0.00 99 1011.6
20260901073545 66 265 0.0 0.0 0.00 0.00 0.00 99 1011.5
20260901073513 66 265 0.0 0.0 0.00 0.00 0.00 99 1011.5
20260901072458 66 265 0.0 0.0 0.00 0.00 0.00 99 1011.6
20260901072155 67 265 0.0 0.0 0.00 0.00 0.00 99 1011.5
20260901072028 67 265 0.0 0.0 0.00 0.00 0.00 99 1011.5
20260901071958 67 265 0.0 0.0 0.00 0.00 0.00 99 1011.5
20260901071901 67 265 0.0 0.0 0.00 0.00 0.00 99 1011.6
20260901071630 67 265 0.0 0.0 0.00 0.00 0.00 99 1011.6
20260901071532 67 265 0.0 0.0 0.00 0.00 0.00 99 1011.6
20260901071458 67 265 0.0 0.0 0.00 0.00 0.00 99 1011.6
20260901070957 67 265 0.0 0.0 0.00 0.00 0.00 98 1011.7
20260901065958 67 265 0.0 0.0 0.00 0.00 0.00 98 1011.9
20260901065223 68 265 0.0 0.0 0.00 0.00 0.00 98 1011.9
20260901065124 68 265 0.0 0.0 0.00 0.00 0.00 98 1011.9
20260901064957 68 265 0.0 0.0 0.00 0.00 0.00 98 1011.9
20260901064457 68 265 0.0 0.0 0.00 0.00 0.00 97 1011.9
20260901062957 68 265 0.0 0.0 0.00 0.00 0.00 96 1012.1
20260901061957 69 265 0.0 0.0 0.00 0.00 0.00 96 1012.2
20260901061537 69 265 0.0 0.0 0.00 0.00 0.00 96 1012.1
20260901061459 69 265 0.0 0.0 0.00 0.00 0.00 96 1012.1
20260901060957 69 265 0.0 0.0 0.00 0.00 0.00 96 1012.0
20260901054957 69 265 0.0 0.0 0.00 0.00 0.00 94 1011.9
20260901054030 69 265 0.0 0.0 0.00 0.00 0.00 93 1011.8
20260901053959 69 265 0.0 0.0 0.00 0.00 0.00 93 1011.8
20260901052152 70 265 0.0 0.0 0.00 0.00 0.00 93 1011.6
20260901052050 70 265 0.0 0.0 0.00 0.00 0.00 93 1011.6
20260901051958 70 265 0.0 0.0 0.00 0.00 0.00 93 1011.6
20260901045658 70 265 0.0 0.0 0.00 0.00 0.00 90 1011.2
20260901045538 70 265 0.0 0.0 0.00 0.00 0.00 90 1011.2
20260901045504 70 265 0.0 0.0 0.00 0.00 0.00 90 1011.2
20260901044958 70 265 0.0 0.0 0.00 0.00 0.00 90 1011.1
20260901044724 71 265 0.0 0.0 0.00 0.00 0.00 90 1011.1
20260901044644 71 265 0.0 0.0 0.00 0.00 0.00 90 1011.1
20260901044458 71 265 0.0 0.0 0.00 0.00 0.00 90 1011.1
20260901043958 71 265 0.0 0.0 0.00 0.00 0.00 89 1011.0
20260901042656 71 265 0.0 0.0 0.00 0.00 0.00 87 1010.8
20260901042535 71 265 0.0 0.0 0.00 0.00 0.00 87 1010.8
20260901042501 71 265 0.0 0.0 0.00 0.00 0.00 87 1010.8
20260901041458 72 265 0.0 0.0 0.00 0.00 0.00 87 1010.8
20260901041254 72 265 0.0 0.0 0.00 0.00 0.00 87 1010.8
20260901041032 72 265 0.0 0.0 0.00 0.00 0.00 87 1010.8
20260901040958 72 265 0.0 0.0 0.00 0.00 0.00 87 1010.8
20260901040713 72 265 0.0 0.0 0.00 0.00 0.00 86 1011.0
20260901040631 72 265 0.0 0.0 0.00 0.00 0.00 86 1011.0
20260901040458 72 265 0.0 0.0 0.00 0.00 0.00 86 1011.0